Tracking 31027 objects as of 19-Jul-2025
HD Live streaming from Space Station
objects crossing your sky now

DELTA 1 DEB

Track DELTA 1 DEB now!
10-day predictions


NORAD ID: 7940
Int'l Code: 1972-058CF
Perigee: 639.5 km
Apogee: 1,109.2 km
Inclination: 98.0 °
Period: 102.3 minutes
Semi major axis: 7245 km
RCS: 0.0419 m2 (small)
Launch date: July 23, 1972
Source: United States (US)
Launch site: AIR FORCE WESTERN TEST RANGE (AFWTR)

Note: This is SATELLITE DEBRIS
Your satellite tracking list
CZ-3A R/B
Track 1 satellite(s)




NASA's NSSDC Master Catalog

Two Line Element Set (TLE):
1 07940U 72058CF  25199.60139199  .00001131  00000-0  42729-3 0  9999
2 07940  98.0234 259.0989 0324125 140.7012 221.8176 14.07705808674051
Source of the keplerian elements: AFSPC